�N����,����,�~����,�C��,���x,�C��,����,���ϕ���,�ő�u�ԕ���,�ő厞����,���˗�,�I�_���x,�n�����x,�ő啗���N��,DTYPE
"23/09/17","00:10",0.0,23.2,84.5,1008.6,287.5,0.3,0.6,298.0,0.00,20.5,26.1,"00:02:08",1
"23/09/17","00:20",0.0,23.1,85.2,1008.6,285.0,0.7,1.2,310.1,0.00,20.5,25.9,"00:17:28",1
"23/09/17","00:30",0.0,23.2,85.6,1008.6,306.2,1.0,2.1,317.3,0.00,20.7,25.8,"00:29:20",1
"23/09/17","00:40",0.0,23.1,86.0,1008.6,315.7,0.8,1.7,318.0,0.00,20.7,25.8,"00:38:40",1
"23/09/17","00:50",0.0,23.2,86.2,1008.6,304.7,1.3,2.4,310.3,0.00,20.8,25.7,"00:47:28",1
"23/09/17","01:00",0.0,23.2,86.2,1008.3,304.0,0.7,1.6,301.2,0.00,20.8,25.8,"00:50:08",1
"23/09/17","01:10",0.0,23.1,86.4,1008.3,292.8,0.8,1.6,302.0,0.00,20.7,25.6,"01:09:44",1
"23/09/17","01:20",0.0,23.1,86.4,1008.6,294.4,1.0,1.6,326.0,0.00,20.7,25.6,"01:13:28",1
"23/09/17","01:30",0.0,23.1,86.4,1008.6,305.1,1.0,1.3,326.6,0.00,20.7,25.6,"01:26:00",1
"23/09/17","01:40",0.0,23.1,86.3,1008.3,320.9,1.1,1.6,312.8,0.00,20.7,25.7,"01:30:24",1
"23/09/17","01:50",0.0,22.9,86.5,1008.3,324.9,0.8,1.8,330.5,0.00,20.6,25.6,"01:46:32",1
"23/09/17","02:00",0.0,22.8,86.7,1008.3,327.7,1.1,1.4,336.6,0.00,20.5,25.4,"01:53:20",1
"23/09/17","02:10",0.0,22.4,87.1,1008.3,287.8,0.7,1.3,265.7,0.00,20.2,25.6,"02:09:12",1
"23/09/17","02:20",0.0,22.6,87.6,1008.3,295.6,1.1,1.8,323.1,0.00,20.5,25.3,"02:12:00",1
"23/09/17","02:30",0.0,22.7,87.8,1008.3,303.9,1.1,1.4,335.0,0.00,20.6,25.4,"02:26:24",1
"23/09/17","02:40",0.0,22.6,88.1,1008.6,300.4,1.1,1.8,313.9,0.00,20.6,25.4,"02:39:12",1
"23/09/17","02:50",0.0,22.6,88.2,1008.6,288.2,0.8,1.6,279.6,0.00,20.6,25.3,"02:40:32",1
"23/09/17","03:00",0.0,22.6,88.2,1008.6,289.0,1.1,1.9,316.4,0.00,20.6,25.4,"02:58:56",1
"23/09/17","03:10",0.0,22.7,88.2,1008.3,312.8,1.1,1.7,309.1,0.00,20.7,25.4,"03:02:56",1
"23/09/17","03:20",0.0,22.6,88.2,1008.6,319.1,1.0,1.4,315.2,0.00,20.6,25.1,"03:10:16",1
"23/09/17","03:30",0.0,22.5,88.4,1008.6,309.6,1.0,1.3,324.6,0.00,20.5,25.3,"03:26:08",1
"23/09/17","03:40",0.0,22.5,88.6,1008.1,286.2,1.0,1.6,309.2,0.00,20.6,25.2,"03:38:32",1
"23/09/17","03:50",0.0,22.4,88.8,1008.6,296.5,0.6,1.2,288.5,0.00,20.5,25.2,"03:49:28",1
"23/09/17","04:00",0.0,22.5,89.0,1008.3,295.5,1.0,1.6,319.6,0.00,20.6,25.1,"03:59:36",1
"23/09/17","04:10",0.0,22.5,89.1,1008.3,325.1,1.2,1.7,321.9,0.00,20.7,25.2,"04:06:00",1
"23/09/17","04:20",0.0,22.4,89.5,1008.3,301.1,1.0,1.3,332.1,0.00,20.6,25.3,"04:10:08",1
"23/09/17","04:30",0.0,22.4,89.7,1008.6,303.3,0.7,1.7,339.7,0.00,20.7,25.1,"04:21:04",1
"23/09/17","04:40",0.0,22.3,89.9,1007.8,317.0,1.0,1.3,293.2,0.00,20.6,25.0,"04:30:08",1
"23/09/17","04:50",0.0,22.2,90.1,1008.1,300.1,0.8,1.2,315.5,0.00,20.5,25.2,"04:41:04",1
"23/09/17","05:00",0.0,22.3,90.5,1007.8,310.4,1.1,1.6,322.4,0.00,20.7,24.9,"04:52:48",1
"23/09/17","05:10",0.0,22.3,90.6,1007.6,345.1,0.6,1.3,312.2,0.00,20.7,25.0,"05:00:48",1
"23/09/17","05:20",0.0,22.2,90.9,1008.1,324.6,1.3,1.9,321.8,0.00,20.7,25.0,"05:11:20",1
"23/09/17","05:30",0.0,22.0,91.2,1007.8,298.0,0.8,1.3,329.0,0.00,20.5,24.9,"05:21:20",1
"23/09/17","05:40",0.0,22.0,91.4,1007.8,295.9,0.8,1.6,311.8,0.00,20.6,24.6,"05:35:52",1
"23/09/17","05:50",0.0,22.2,91.7,1008.1,301.2,1.0,1.4,312.7,0.00,20.8,24.7,"05:49:12",1
"23/09/17","06:00",0.0,22.3,91.8,1008.1,307.6,1.1,1.4,318.3,0.00,20.9,24.8,"05:55:28",1
"23/09/17","06:10",0.0,22.4,91.9,1008.1,315.7,0.8,1.2,322.3,0.00,21.1,24.8,"06:00:48",1
"23/09/17","06:20",0.0,22.5,92.1,1007.8,314.6,0.7,1.0,320.8,0.00,21.2,24.8,"06:14:32",1
"23/09/17","06:30",0.0,22.7,92.2,1007.8,301.7,0.5,0.8,319.6,0.00,21.4,24.7,"06:20:24",1
"23/09/17","06:40",0.0,23.2,92.3,1008.1,302.6,0.7,1.1,266.4,0.01,21.9,24.8,"06:35:20",1
"23/09/17","06:50",0.0,23.9,92.5,1007.8,302.8,0.5,1.0,321.3,0.04,22.6,24.8,"06:43:28",1
"23/09/17","07:00",0.0,24.6,92.2,1007.4,324.9,0.5,1.0,324.8,0.03,23.3,24.8,"06:57:04",1
"23/09/17","07:10",0.0,25.0,92.1,1007.8,296.6,0.3,0.5,297.1,0.05,23.7,24.7,"07:00:08",1
"23/09/17","07:20",0.0,25.6,91.7,1007.8,117.8,0.2,0.8,101.3,0.10,24.2,24.7,"07:17:44",1
"23/09/17","07:30",0.0,26.1,91.0,1007.8,123.9,0.2,0.8,118.8,0.11,24.6,24.8,"07:23:28",1
"23/09/17","07:40",0.0,26.5,89.1,1007.8,257.1,0.2,0.9,6.4,0.12,24.6,24.8,"07:30:08",1
"23/09/17","07:50",0.0,26.5,87.9,1007.4,202.5,0.2,0.8,255.6,0.05,24.4,24.8,"07:43:44",1
"23/09/17","08:00",0.0,26.7,86.8,1007.4,328.4,0.1,0.5,343.4,0.06,24.4,24.7,"07:56:40",1
"23/09/17","08:10",0.0,27.0,85.2,1007.4,337.3,0.3,1.3,347.0,0.09,24.3,24.6,"08:04:48",1
"23/09/17","08:20",0.0,27.2,83.1,1006.9,357.0,0.7,1.6,347.9,0.07,24.1,24.8,"08:17:52",1
"23/09/17","08:30",0.0,27.1,82.1,1007.1,357.4,0.5,1.1,351.2,0.07,23.8,24.8,"08:20:32",1
"23/09/17","08:40",0.0,27.5,81.6,1006.9,0.1,0.2,0.8,13.1,0.07,24.1,25.0,"08:36:40",1
"23/09/17","08:50",0.0,27.8,81.1,1007.1,18.5,0.3,1.4,12.1,0.08,24.3,24.9,"08:46:16",1
"23/09/17","09:00",0.0,28.0,80.1,1007.1,357.9,0.5,1.1,344.4,0.08,24.3,24.7,"08:51:04",1
"23/09/17","09:10",0.0,27.9,79.2,1007.1,29.5,0.3,1.4,65.7,0.07,24.0,24.9,"09:08:08",1
"23/09/17","09:20",0.0,27.9,78.9,1007.1,352.8,0.6,1.2,334.7,0.06,23.9,24.8,"09:10:48",1
"23/09/17","09:30",0.0,28.1,79.0,1007.4,0.4,0.6,1.3,59.7,0.08,24.2,24.9,"09:20:02",1
"23/09/17","09:40",0.0,28.1,79.0,1007.6,13.9,0.6,1.3,5.9,0.05,24.2,25.0,"09:34:16",1
"23/09/17","09:50",0.0,28.0,78.8,1007.8,8.9,0.6,1.3,350.5,0.05,24.0,25.2,"09:42:32",1
"23/09/17","10:00",0.0,28.4,78.8,1007.6,23.7,0.6,1.4,7.1,0.12,24.4,25.2,"09:59:04",1
"23/09/17","10:10",0.0,29.6,77.0,1008.1,36.9,0.6,1.7,2.9,0.35,25.2,25.2,"10:01:20",1
"23/09/17","10:20",0.0,30.1,73.8,1009.0,154.4,0.8,2.4,201.6,0.28,24.9,25.3,"10:14:40",1
"23/09/17","10:30",0.0,31.0,72.3,1009.5,135.3,0.8,2.1,125.3,0.39,25.5,25.2,"10:28:48",1
"23/09/17","10:40",0.0,31.4,69.0,1009.5,161.4,1.1,3.3,221.5,0.35,25.1,25.5,"10:39:52",1
"23/09/17","10:50",0.0,32.0,67.1,1010.0,161.7,1.2,3.2,227.4,0.48,25.2,25.5,"10:40:24",1
"23/09/17","11:00",0.0,32.4,65.9,1010.0,135.9,1.3,2.5,136.3,0.45,25.2,25.6,"10:55:52",1
"23/09/17","11:10",0.0,31.5,65.7,1010.0,179.2,1.3,2.7,136.8,0.23,24.3,25.7,"11:00:48",1
"23/09/17","11:20",0.0,31.7,64.1,1010.0,241.7,0.6,2.8,231.1,0.21,24.1,25.8,"11:16:32",1
"23/09/17","11:30",0.0,31.5,62.0,1009.3,244.3,1.3,3.7,234.3,0.28,23.4,25.7,"11:23:12",1
"23/09/17","11:40",0.0,32.6,59.2,1009.5,243.7,1.8,4.5,232.3,0.55,23.6,25.8,"11:33:04",1
"23/09/17","11:50",0.0,32.8,56.5,1009.7,219.8,3.0,6.4,241.4,0.52,23.1,25.8,"11:48:56",1
"23/09/17","12:00",0.0,32.6,57.4,1009.5,197.7,2.7,6.5,207.5,0.38,23.1,25.7,"11:54:40",1
"23/09/17","12:10",0.0,32.6,59.0,1009.3,221.0,1.8,5.0,228.1,0.31,23.6,26.0,"12:01:52",1
"23/09/17","12:20",0.0,32.7,57.1,1009.5,214.6,2.6,5.4,234.1,0.42,23.1,25.8,"12:16:08",1
"23/09/17","12:30",0.0,32.8,57.4,1009.5,202.6,2.2,8.1,208.7,0.34,23.3,26.0,"12:20:40",1
"23/09/17","12:40",0.0,32.3,61.1,1008.8,195.6,2.2,6.5,233.9,0.17,23.9,26.1,"12:30:48",1
"23/09/17","12:50",0.0,31.9,60.0,1008.6,210.5,2.5,4.4,213.7,0.16,23.2,26.2,"12:41:44",1
"23/09/17","13:00",0.0,32.1,60.8,1008.1,207.3,1.8,4.1,226.9,0.18,23.6,26.4,"12:51:28",1
"23/09/17","13:10",0.0,32.3,59.6,1008.3,201.7,1.2,2.7,194.5,0.13,23.5,26.4,"13:00:56",1
"23/09/17","13:20",0.0,32.4,60.3,1008.1,245.0,1.2,2.9,229.3,0.18,23.8,26.3,"13:19:52",1
"23/09/17","13:30",0.0,33.2,55.7,1008.3,201.8,1.8,4.5,189.5,0.37,23.2,26.3,"13:27:28",1
"23/09/17","13:40",0.0,33.6,55.5,1008.1,186.4,2.3,4.8,224.9,0.41,23.5,26.5,"13:38:48",1
"23/09/17","13:50",0.0,33.7,56.0,1008.3,236.0,2.1,5.2,237.7,0.38,23.7,26.2,"13:44:24",1
"23/09/17","14:00",0.0,34.1,54.7,1008.6,204.6,2.2,5.1,237.3,0.39,23.7,26.5,"13:55:12",1
"23/09/17","14:10",0.0,34.1,53.8,1008.6,224.4,2.5,5.9,193.8,0.36,23.4,26.5,"14:01:36",1
"23/09/17","14:20",0.0,33.9,54.1,1008.3,226.3,2.3,4.3,210.8,0.27,23.4,26.5,"14:14:40",1
"23/09/17","14:30",0.0,33.0,57.1,1007.8,248.6,1.3,3.4,223.4,0.12,23.4,26.7,"14:20:02",1
"23/09/17","14:40",0.0,33.0,57.6,1007.6,241.4,1.8,4.0,242.4,0.22,23.6,26.9,"14:30:24",1
"23/09/17","14:50",0.0,32.9,57.8,1007.6,293.2,1.6,4.2,335.8,0.16,23.5,26.8,"14:46:32",1
"23/09/17","15:00",0.0,32.3,58.9,1007.1,318.4,1.2,2.9,355.3,0.09,23.3,26.7,"14:56:32",1
"23/09/17","15:10",0.0,32.2,59.1,1007.1,314.2,1.2,3.1,332.0,0.11,23.2,26.8,"15:00:48",1
"23/09/17","15:20",0.0,32.5,58.7,1006.7,280.0,1.0,2.4,245.0,0.10,23.4,26.8,"15:12:56",1
"23/09/17","15:30",0.0,32.9,57.0,1006.9,313.9,1.1,3.5,335.9,0.19,23.3,26.8,"15:28:32",1
"23/09/17","15:40",0.0,33.3,55.3,1006.9,266.7,1.3,4.1,213.8,0.19,23.2,26.7,"15:30:02",1
"23/09/17","15:50",0.0,33.3,55.2,1007.1,240.5,2.1,5.6,221.3,0.17,23.1,26.8,"15:46:56",1
"23/09/17","16:00",0.0,33.1,55.7,1006.9,248.1,1.2,2.9,185.5,0.12,23.1,26.9,"15:56:08",1
"23/09/17","16:10",0.0,32.3,57.3,1006.9,244.0,1.6,2.9,237.2,0.05,22.8,26.8,"16:04:48",1
"23/09/17","16:20",0.0,32.0,58.4,1006.9,233.2,1.8,3.4,221.4,0.05,22.9,26.9,"16:16:48",1
"23/09/17","16:30",0.0,31.8,58.5,1006.7,247.8,1.6,3.5,243.5,0.05,22.7,27.0,"16:21:20",1
"23/09/17","16:40",0.0,31.5,59.9,1006.4,248.0,1.3,3.6,227.0,0.03,22.8,26.8,"16:33:28",1
"23/09/17","16:50",0.0,31.2,60.5,1006.0,231.0,1.2,3.1,239.2,0.01,22.7,26.9,"16:49:04",1
"23/09/17","17:00",0.0,31.1,60.1,1006.0,262.2,0.8,2.8,236.8,0.01,22.5,26.8,"16:51:20",1
"23/09/17","17:10",0.0,31.0,62.9,1006.0,318.2,0.7,1.4,354.9,0.01,23.1,26.9,"17:02:32",1
"23/09/17","17:20",0.0,30.5,61.3,1005.7,280.5,0.7,2.8,233.7,0.00,22.2,26.8,"17:17:12",1
"23/09/17","17:30",0.0,30.6,64.3,1006.0,2.2,0.6,1.2,354.6,0.00,23.1,26.8,"17:23:28",1
"23/09/17","17:40",0.0,30.0,66.6,1005.2,1.5,0.6,1.3,350.5,0.00,23.1,26.8,"17:32:00",1
"23/09/17","17:50",0.0,29.5,67.7,1005.5,343.9,0.6,0.9,352.6,0.00,22.9,26.7,"17:40:56",1
"23/09/17","18:00",0.0,29.2,68.4,1005.2,276.1,0.2,1.0,341.4,0.00,22.8,26.7,"17:51:28",1
"23/09/17","18:10",0.0,28.8,70.0,1005.0,311.2,0.1,0.5,332.5,0.00,22.8,26.7,"18:09:52",1
"23/09/17","18:20",0.0,28.5,72.2,1005.7,328.3,0.8,1.3,340.7,0.00,23.0,26.8,"18:11:28",1
"23/09/17","18:30",0.0,28.3,73.0,1006.0,325.9,0.8,1.8,342.6,0.00,23.0,26.7,"18:25:44",1
"23/09/17","18:40",0.0,28.0,74.4,1006.0,332.5,1.1,1.7,336.0,0.00,23.1,26.5,"18:33:12",1
"23/09/17","18:50",0.0,27.7,75.2,1006.0,297.6,0.8,2.0,321.0,0.00,22.9,26.7,"18:48:24",1
"23/09/17","19:00",0.0,27.7,75.3,1006.7,317.2,0.7,1.3,324.2,0.00,23.0,26.6,"18:50:16",1
"23/09/17","19:10",0.0,27.6,75.3,1006.4,297.0,0.8,1.9,335.6,0.00,22.9,26.6,"19:07:36",1
"23/09/17","19:20",0.0,27.7,74.8,1006.9,314.1,1.0,1.9,313.0,0.00,22.9,26.6,"19:12:16",1
"23/09/17","19:30",0.0,27.7,74.4,1006.7,325.5,1.1,2.0,326.5,0.00,22.8,26.7,"19:26:24",1
"23/09/17","19:40",0.0,27.7,74.4,1007.4,306.3,1.1,2.6,327.0,0.00,22.8,26.4,"19:30:24",1
"23/09/17","19:50",0.0,27.8,74.0,1007.4,323.2,1.5,2.4,333.2,0.00,22.8,26.5,"19:42:24",1
"23/09/17","20:00",0.0,27.8,73.8,1007.6,326.3,1.3,2.6,349.6,0.00,22.7,26.4,"19:52:48",1
"23/09/17","20:10",0.0,27.8,73.8,1007.6,310.2,0.6,1.6,354.5,0.00,22.7,26.2,"20:00:16",1
"23/09/17","20:20",0.0,27.7,74.3,1007.6,328.5,0.5,1.2,334.7,0.00,22.7,26.4,"20:14:32",1
"23/09/17","20:30",0.0,27.6,74.3,1007.8,334.0,0.8,1.9,334.8,0.00,22.7,26.4,"20:25:12",1
"23/09/17","20:40",0.0,27.8,73.5,1007.8,341.1,1.1,2.4,358.1,0.00,22.7,26.2,"20:32:56",1
"23/09/17","20:50",0.0,27.9,72.8,1007.6,324.6,1.0,2.0,339.4,0.00,22.6,26.2,"20:40:32",1
"23/09/17","21:00",0.0,27.9,72.9,1008.3,344.8,0.7,1.3,6.3,0.00,22.6,26.2,"20:56:56",1
"23/09/17","21:10",0.0,27.6,74.0,1007.8,314.0,0.6,1.2,343.7,0.00,22.6,26.1,"21:07:04",1
"23/09/17","21:20",0.0,27.2,75.5,1007.8,318.1,0.7,1.1,336.9,0.00,22.5,26.2,"21:10:16",1
"23/09/17","21:30",0.0,26.7,77.2,1008.1,319.9,0.5,1.2,356.6,0.00,22.4,26.2,"21:22:16",1
"23/09/17","21:40",0.0,26.4,78.4,1008.3,326.1,1.0,2.0,335.8,0.00,22.4,26.2,"21:36:40",1
"23/09/17","21:50",0.0,26.3,79.2,1008.1,336.9,1.2,2.0,334.2,0.00,22.4,26.2,"21:49:04",1
"23/09/17","22:00",0.0,26.2,79.8,1007.8,334.2,1.3,2.2,329.6,0.00,22.5,26.2,"21:55:36",1
"23/09/17","22:10",0.0,26.0,80.3,1007.8,325.6,1.3,2.5,337.7,0.00,22.4,26.1,"22:01:44",1
"23/09/17","22:20",0.0,25.9,80.6,1008.3,293.5,0.7,2.0,349.5,0.00,22.3,26.0,"22:10:40",1
"23/09/17","22:30",0.0,25.7,80.8,1007.8,307.9,0.2,0.9,337.2,0.00,22.2,26.0,"22:28:32",1
"23/09/17","22:40",0.0,25.6,81.3,1008.3,334.3,0.3,1.2,345.4,0.00,22.2,26.0,"22:35:04",1
"23/09/17","22:50",0.0,25.5,82.0,1008.3,330.8,0.7,1.8,330.6,0.00,22.2,26.1,"22:45:12",1
"23/09/17","23:00",0.0,25.6,82.0,1008.1,313.0,0.8,1.9,324.4,0.00,22.3,26.1,"22:51:12",1
"23/09/17","23:10",0.0,25.5,82.2,1008.3,301.5,0.5,0.9,265.3,0.00,22.3,25.9,"23:08:08",1
"23/09/17","23:20",0.0,25.2,82.8,1008.1,334.0,0.8,1.8,336.2,0.00,22.1,26.0,"23:12:32",1
"23/09/17","23:30",0.0,25.1,83.4,1008.3,41.7,0.5,1.0,337.8,0.00,22.1,25.8,"23:27:44",1
"23/09/17","23:40",0.0,24.8,84.1,1008.1,314.2,0.7,1.2,328.0,0.00,22.0,25.8,"23:33:28",1
"23/09/17","23:50",0.0,24.7,84.6,1008.1,303.5,0.7,1.1,328.6,0.00,22.0,25.7,"23:40:48",1
"23/09/17","24:00",0.0,24.7,84.8,1008.1,319.6,0.8,1.4,332.4,0.00,22.0,25.9,"23:51:20",1
